Regional Weather Roundup
Issued by NWS

Home | Current Version | Previous Version | Text Only | Print | Product List | Glossary On
Versions: 1 2 3 4 5 6 7 8 9 10 11 12 13 14 15 16 17 18 19 20 21 22 23 24 25 26 27 28 29 30 31 32 33 34 35 36 37 38 39 40 41 42 43 44 45 46 47 48 49 50
000
ASUS45 KTFX 310604
RWRMT
MONTANA HOURLY WEATHER ROUNDUP
NATIONAL WEATHER SERVICE GREAT FALLS MT
1204 AM MDT FRI OCT 31 2014

NOTE: "FAIR" INDICATES FEW OR NO CLOUDS BELOW 12000 FEET WITH NO
SIGNIFICANT WEATHER AND/OR OBSTRUCTIONS TO VISIBILITY.

* THESE STATIONS ARE NOT UNDER NWS QUALITY CONTROL. THEY DO NOT
   REPORT WEATHER SUCH AS PRECIPITATION OR FOG.

MTZ001>007-043-310700-
WEST OF THE DIVIDE
CITY           SKY/WX    TMP DP  RH WIND       PRES   REMARKS
KALISPELL      CLOUDY    39  37  93 CALM      29.96F
MISSOULA       MOCLDY    39  37  93 CALM      30.00F
BUTTE          PTCLDY    39  30  70 CALM      30.11S
MULLAN PASS    MOCLDY    39  37  93 S13       29.96F WCI  31
* DEER LODGE   MOCLDY    48  30  50 S5         N/A
* ESSEX        N/A       41  37  86 S10G17     N/A
* HAMILTON APT CLOUDY    41  37  86 W1         N/A
* LIBBY APT    MOCLDY    45  41  86 N/A        N/A
* LINCOLN      N/A       36  34  92 NW2        N/A
* LOOKOUT PASS N/A       41  39  93 S9G15      N/A
* POLSON       N/A       40  40 100 N/A        N/A
* RONAN APT    CLOUDY    43  39  86 N/A        N/A
* SEELEY LAKE  N/A       35  34  96 E1         N/A
* THOMP F APT  MOCLDY    51  26  38 NE7G13     N/A
* YAAK HILL    N/A       44  41  89 E4         N/A
$$

MTZ008-052>055-310700-
SOUTHWEST MONTANA
CITY           SKY/WX    TMP DP  RH WIND       PRES   REMARKS
BOZEMAN        CLOUDY    37  32  82 CALM      30.10F
DILLON         CLOUDY    37  28  70 SE7       30.10F WCI  32
W YELLOWSTONE  PTCLDY    27  27 100 CALM      30.22F
* ENNIS APT    MOCLDY    52  28  40 SE8        N/A
* THREE FORKS  CLOUDY    36  36 100 N/A        N/A
* BOULDER HILL N/A       42  24  49 S10        N/A
* MONIDA PASS  N/A       40  26  57 N2         N/A
* RAYNOLDS PAS N/A       38  19  46 SE12       N/A   WCI  30
* WHITEHALL    N/A       38  29  70 SE2G8      N/A
* WISE RIVER   N/A       35  29  79 SE5        N/A   WCI  31
$$

MTZ009>010-012-014-046-048-049-054-310700-
EAST SLOPES AND CENTRAL MONTANA
CITY           SKY/WX    TMP DP  RH WIND       PRES   REMARKS
CUT BANK       CLOUDY    36  34  92 SE10      30.00F WCI  29
GREAT FALLS    CLOUDY    48  32  54 E3        30.02F
HELENA         MOCLDY    43  36  76 CALM      30.06F
MALMSTROM AFB  CLOUDY    41  36  82 NE3       30.03F
* EAST GLACIER N/A       36  32  85 NW1        N/A
* MONARCH      N/A       52  24  34 S16G22     N/A
* SAINT MARY   N/A       37  31  79 S2         N/A
* SWEET GRASS  N/A       38  35  89 S26G34     N/A   WCI  26
$$

MTZ011-013-016-021-035-040-045-047-050-051-310700-
NORTH CENTRAL MONTANA
CITY           SKY/WX    TMP DP  RH WIND       PRES   REMARKS
HAVRE          PTCLDY    36  34  92 E20       30.08F WCI  25
LEWISTOWN      PTCLDY    45  32  60 E9        30.11F
* N BAR RANCH  CLEAR     39  32  76 CALM      30.20F
* CHESTER      N/A       38  34  86 E3         N/A
* DENTON       N/A       43  32  65 SE9        N/A
* JUDITH GAP   N/A       39  31  73 S12        N/A   WCI  32
* LOMA         N/A       42  34  73 E19G28     N/A
$$

MTZ017>020-022>027-061-062-310700-
NORTHEAST MONTANA
CITY           SKY/WX    TMP DP  RH WIND       PRES   REMARKS
GLASGOW        CLOUDY    36  30  79 SE22G30   30.33F WCI  25
GLENDIVE       CLOUDY    36  28  73 SE15G20   30.43F WCI  27
JORDAN         PTCLDY    32  28  85 E15       30.29F WCI  22
SIDNEY         CLOUDY    34  27  76 SE16      30.48F WCI  24
WOLF POINT     CLOUDY    37  30  76 SE16G22   30.40F WCI  28
* BEAVER HILL  N/A       31  29  92 SE26G31    N/A   WCI  17
* CIRCLE       N/A       35  32  89 E10G15     N/A   WCI  27
* LINDSAY DVD  N/A       32  29  89 E22G27     N/A   WCI  19
* NAVAJO       N/A       31  28  89 SE15G24    N/A   WCI  20
* PLENTYWOOD A N/A       30 N/A N/A N/A        N/A
* POPLAR APT   N/A       37  30  76 N/A        N/A
$$

MTZ028>042-056>058-310700-
SOUTHCENTRAL AND SOUTHEAST MONTANA
CITY           SKY/WX    TMP DP  RH WIND       PRES   REMARKS
BAKER          CLOUDY    34  28  79 SE20G31   30.42F WCI  23
BILLINGS       PTCLDY    39  32  76 N7        30.17F WCI  34
LIVINGSTON     CLOUDY    45  30  56 CALM      30.15F
MILES CITY     PTCLDY    36  30  79 SE14      30.34F WCI  27
* FORSYTH APT  PTCLDY    34  30  85 E9         N/A   WCI  27
* LAUREL APT   PTCLDY    43  25  49 N7         N/A
* ROUNDUP APT  PTCLDY    39  30  70 N/A        N/A
* ALZADA       N/A       32  30  92 E17        N/A   WCI  21
* LAME DEER    N/A       40  32  73 SE10G16    N/A   WCI  34
* REED POINT   N/A       38  31  76 N/A        N/A
* ROSCOE HILL  N/A       43  25  49 SW3        N/A
$$

REGIONAL REPORTS...DAKOTAS
CITY           SKY/WX    TMP DP  RH WIND       PRES   REMARKS
WILLISTON      CLOUDY    28  23  81 SE10      30.49F WCI  19
DICKINSON      CLOUDY    28  25  89 SE16      30.47F WCI  16
BEACH          N/A       32  32 100 SE22G28   30.44F WCI  19
CROSBY         CLEAR     19  19 100 SE7       30.50F WCI  10
TIOGA          CLEAR     12  12 100 E6        30.52F WCI   2
BISMARCK       CLEAR     19  18  96 CALM      30.58F
GRAND FORKS    CLEAR     19  14  81 N7        30.59R WCI  10
FARGO          CLEAR     23  18  81 NW12      30.57R WCI  11
BUFFALO SD     CLEAR     34  28  79 SE14      30.39F WCI  24
RAPID CITY     CLOUDY    30  28  92 SE9       30.49R WCI  22
$$

REGIONAL REPORTS...WYOMING/IDAHO/WASHINGTON
CITY           SKY/WX    TMP DP  RH WIND       PRES   REMARKS
GILLETTE       CLEAR     37  30  76 S20       30.31F WCI  27
SHERIDAN       PTCLDY    46  27  48 SE15      30.21F
CODY           MOCLDY    39  25  57 CALM      30.21F
YELLOWSTONE LA CLOUDY    28  27  96 W3        30.29F
SALMON         CLOUDY    43  37  79 CALM      30.04F
MULLAN PASS    MOCLDY    39  37  93 S13       29.96S WCI  31
SAND POINT     CLOUDY    46  43  89 NE13      29.87F
SPOKANE        CLOUDY    48  43  83 NE10      29.81F
$$

REGIONAL REPORTS...ALBERTA
CITY           SKY/WX    TMP DP  RH WIND       PRES   REMARKS
EDMONTON       CLOUDY    36  32  85 SE18G26   29.80F WCI  26

$$




USA.gov is the U.S. government's official web portal to all federal, state and local government web resources and services.